[[{"header":{"parameterUnit":"m.s-1","parameterCategory":1,"la1":30.2991,"la2":30.254,"lo1":-89.0895,"lo2":-89.0444,"dx":0.0017,"dy":0.0017,"nx":28,"ny":28,"refTime":"2022-11-15T15:00:00:Z","depth":0,"parameterNumber":2,"parameterNumberName":"U-component_of_WINDS"},"data":[0,0,0,0,0,0,0,0,0,0,0,0,0,0,0,0,0,0,0,0,0,0,0,0,0,0,0,0,0,0,0,0,0,0,0,0,0,0,0,0,0,0,0,0,0,0,0,0,0,0,0,0,0,0,0,0,0,0,-1.8746,-1.8747,0,-1.883,-1.8831,-1.8832,-1.8769,-1.8766,-1.8763,-1.8761,-1.8851,-1.8856,-1.8861,0,0,0,0,0,0,0,0,0,0,0,0,0,-1.8534,-1.8538,-1.8746,-1.8747,-1.8748,-1.883,-1.8831,-1.8832,-1.8769,-1.8766,-1.8763,-1.8759,-1.8849,-1.8855,-1.8861,0,0,0,0,0,0,0,0,0,0,0,0,0,-1.8623,-1.8539,-1.8745,-1.8726,-1.8725,-1.883,-1.8831,-1.8832,-1.877,-1.8766,-1.8762,-1.8758,-1.8847,-1.8855,-1.8862,-1.8991,0,0,-1.8885,-1.8888,0,0,0,0,0,0,0,0,-1.8618,-1.8631,-1.8728,-1.8728,-1.8727,-1.8784,-1.8789,-1.8886,-1.8771,-1.8753,-1.8761,-1.8756,-1.8833,-1.8841,-1.8866,-1.8995,-1.8999,-1.8886,-1.889,-1.8893,-1.8895,0,0,0,0,0,0,0,-1.8612,-1.8627,-1.8779,-1.8729,-1.8729,-1.8714,-1.8722,-1.8807,-1.8815,-1.8754,-1.875,-1.8761,-1.8831,-1.8859,-1.8868,-1.9001,-1.8885,-1.8892,-1.8897,-1.89,-1.9242,-1.9246,0,0,0,0,0,0,-1.8607,-1.8622,-1.8776,-1.8782,-1.8661,-1.8722,-1.8731,-1.877,-1.8814,-1.8817,-1.8764,-1.8757,-1.8848,-1.8859,-1.8871,-1.9026,-1.8893,-1.89,-1.8905,-1.9237,-1.9243,-1.9248,0,0,0,0,0,0,-1.8602,-1.8621,-1.8773,-1.8701,-1.8719,-1.873,-1.8775,-1.8774,-1.8802,-1.8821,-1.8823,-1.8791,-1.8845,-1.886,-1.8962,-1.9029,-1.8904,-1.891,-1.9232,-1.9239,-1.9245,-1.9338,0,0,0,0,0,0,-1.8597,-1.862,-1.8668,-1.8702,-1.8723,-1.8862,-1.8779,-1.8779,-1.8814,-1.8806,-1.8847,-1.8849,-1.8843,-1.8951,-1.8969,-1.9037,-1.8916,-1.9226,-1.9235,-1.9243,-1.9329,-1.9347,-1.9363,0,0,0,0,0,-1.8589,-1.8692,-1.8671,-1.869,-1.8783,-1.8866,-1.8878,-1.8868,-1.882,-1.8869,-1.8882,-1.8848,-1.9017,-1.8962,-1.8982,-1.9053,-1.9222,-1.9232,-1.9242,-1.9321,-1.9344,-1.9362,0,0,0,0,0,0,-1.8667,-1.8696,-1.8673,-1.8789,-1.8826,-1.8855,-1.8917,-1.8891,-1.8943,-1.8934,-1.8919,-1.8929,-1.9036,-1.9054,-1.8992,-1.918,-1.9112,-1.9127,-1.9165,-1.9187,-1.9203,-1.9198,-1.8923,0,0,0,0,0,-1.8697,-1.8761,-1.8783,-1.8883,-1.8902,-1.8907,-1.8942,-1.8931,-1.8969,-1.8984,-1.9004,-1.9043,-1.9105,-1.9146,-1.9204,-1.933,-1.9339,-1.9389,-1.9405,-1.9419,-1.9433,-1.9503,-1.9526,-1.9282,-1.9282,-1.9281,0,0,-1.8761,-1.8785,-1.8826,-1.8899,-1.8926,-1.8994,-1.892,-1.8994,-1.9045,-1.8996,-1.9093,-1.9109,-1.9151,-1.9266,-1.9318,-1.9284,-1.9502,-1.9432,-1.9443,-1.945,-1.9516,-1.9539,-1.9559,-1.9289,-1.9287,-1.9286,0,0,-1.8913,-1.8936,-1.9023,-1.9051,-1.9092,-1.9094,-1.9115,-1.9148,-1.9157,-1.9254,-1.9219,-1.9279,-1.9385,-1.9418,-1.9448,-1.9611,-1.9583,-1.963,-1.9719,-1.9787,-1.9807,-1.9824,-1.9884,-1.9906,-1.9643,-1.9644,-1.9644,0,-1.8988,-1.9087,-1.9071,-1.9149,-1.9183,-1.9139,-1.9228,-1.9256,-1.9315,-1.934,-1.9301,-1.9434,-1.946,-1.9582,-1.9622,-1.9647,-1.9672,-1.9627,-1.9805,-1.9822,-1.9838,-1.9895,-1.9918,-1.9649,-1.9649,-1.9648,-1.9648,0,-1.9179,-1.9248,-1.9313,-1.937,-1.9411,-1.9494,-1.9492,-1.9535,-1.952,-1.9527,-1.9627,-1.9655,-1.9719,-1.9747,-1.9733,-1.9868,-1.9846,-1.9806,-1.9738,-1.9867,-1.9921,-1.9943,-1.9658,-1.9655,-1.9654,-1.9652,0,0,-1.9384,-1.943,-1.9454,-1.948,-1.9521,-1.9576,-1.9656,-1.9717,-1.9756,-1.9797,-1.9866,-1.9957,-1.9921,-1.9955,-1.9944,-2.0004,-2.0134,-1.9957,-1.9957,-1.9991,-2.0287,-2.0319,-2.0344,-2.0114,-2.0118,-2.0121,-2.0284,0,-1.954,-1.968,-1.9668,-1.9801,-1.9866,-1.9825,-1.9896,-1.993,-1.9938,-1.9995,-2.0004,-2.007,-2.0015,-2.0036,-2.0093,-2.0106,-2.0194,-2.0094,-2.018,-2.0184,-2.0174,-2.0372,-2.0406,-2.0559,-2.0305,-2.0308,-2.0311,0,-1.9741,-1.9788,-1.9928,-1.996,-1.9987,-2.0051,-2.0106,-2.016,-2.0198,-2.02,-2.0238,-2.0218,-2.0301,-2.0228,-2.0343,-2.0276,-2.031,-2.0322,-2.0328,-2.0338,-2.0257,-2.039,-2.0607,-2.0631,-2.0344,-2.0341,-2.0339,0,-1.988,-1.9978,-2.0075,-2.0098,-2.0137,-2.0184,-2.0202,-2.0236,-2.0273,-2.0322,-2.0347,-2.0404,-2.0437,-2.0482,-2.0478,-2.0425,-2.0597,-2.0523,-2.0603,-2.0603,-2.0643,-2.0641,-2.0871,-2.066,-2.066,-2.066,-2.0659,0,-2.0057,-2.0145,-2.0138,-2.0199,-2.0296,-2.0281,-2.0378,-2.0392,-2.0422,-2.0485,-2.0452,-2.0512,-2.0502,-2.0562,-2.0559,-2.0656,-2.0671,-2.0676,-2.0675,-2.0681,-2.0681,-2.0705,-2.0696,-2.0666,-2.0664,-2.0663,-2.0662,0,-2.023,-2.0229,-2.0332,-2.036,-2.037,-2.0441,-2.0465,-2.0523,-2.0527,-2.0607,-2.0625,-2.0633,-2.0703,-2.0702,-2.0781,-2.0779,-2.0899,-2.0884,-2.0887,-2.0885,-2.0965,-2.0959,-2.1221,-2.1256,-2.102,-2.1023,-2.1024,0,-2.0344,-2.0411,-2.0446,-2.0485,-2.0507,-2.057,-2.0608,-2.0596,-2.0637,-2.0685,-2.0737,-2.0803,-2.0855,-2.0968,-2.0982,-2.1043,-2.1031,-2.1119,-2.104,-2.1044,-2.1036,-2.1033,-2.1041,-2.1135,-2.1138,-2.114,-2.1142,0,-2.0549,-2.0545,-2.06,-2.0656,-2.0702,-2.0746,-2.0786,-2.082,-2.0812,-2.086,-2.093,-2.097,-2.1051,-2.1117,-2.1176,-2.1196,-2.1169,-2.1166,-2.1188,-2.1196,-2.1196,-2.12,-2.0932,-2.1161,-2.1159,-2.1157,-2.1156,-2.1156,-2.0698,-2.0756,-2.079,-2.0853,-2.0881,-2.0919,-2.0975,-2.0986,-2.1044,-2.1108,-2.1096,-2.1175,-2.1212,-2.1287,-2.1313,-2.1375,-2.1344,-2.1376,-2.1384,-2.1393,-2.1403,-2.1183,-2.1385,-2.1384,-2.1384,-2.1384,-2.1383,0,-2.0903,-2.0922,-2.098,-2.1037,-2.1087,-2.1054,-2.1097,-2.1141,-2.1211,-2.1246,-2.1298,-2.1379,-2.1443,-2.1462,-2.1524,-2.1571,-2.156,-2.1588,-2.1586,-2.1591,-2.1426,-2.1401,-2.1595,-2.1595,-2.1595,-2.1595,-2.1595,-2.1595,-2.1016,-2.1112,-2.1112,-2.1223,-2.1242,-2.1318,-2.1345,-2.1381,-2.1409,-2.1501,-2.1554,-2.1564,-2.1594,-2.1658,-2.1716,-2.172,-2.1746,-2.1779,-2.1779,-2.1624,-2.1603,-2.1583,-2.156,-2.1784,-2.1784,-2.1939,-2.1941,-2.1942]},{"header":{"parameterUnit":"m.s-1","parameterCategory":1,"la1":30.2991,"la2":30.254,"lo1":-89.0895,"lo2":-89.0444,"dx":0.0017,"dy":0.0017,"nx":28,"ny":28,"refTime":"2022-11-15T15:00:00:Z","depth":0,"parameterNumber":3,"parameterNumberName":"V-component_of_WINDS"},"data":[0,0,0,0,0,0,0,0,0,0,0,0,0,0,0,0,0,0,0,0,0,0,0,0,0,0,0,0,0,0,0,0,0,0,0,0,0,0,0,0,0,0,0,0,0,0,0,0,0,0,0,0,0,0,0,0,0,0,-5.2288,-5.2288,0,-5.2355,-5.2356,-5.2357,-5.2279,-5.2276,-5.2273,-5.227,-5.2337,-5.2341,-5.2346,0,0,0,0,0,0,0,0,0,0,0,0,0,-5.2088,-5.2093,-5.2288,-5.2288,-5.2289,-5.2355,-5.2356,-5.2357,-5.228,-5.2276,-5.2272,-5.2269,-5.2335,-5.2341,-5.2346,0,0,0,0,0,0,0,0,0,0,0,0,0,-5.2167,-5.2094,-5.2287,-5.2259,-5.2257,-5.2355,-5.2356,-5.2357,-5.228,-5.2276,-5.2271,-5.2267,-5.2334,-5.234,-5.2347,-5.2476,0,0,-5.2367,-5.237,0,0,0,0,0,0,0,0,-5.2163,-5.2175,-5.2262,-5.2261,-5.2259,-5.2304,-5.231,-5.2397,-5.2281,-5.2271,-5.227,-5.2265,-5.2329,-5.2336,-5.2358,-5.2479,-5.2482,-5.2368,-5.2372,-5.2375,-5.2377,0,0,0,0,0,0,0,-5.2158,-5.2171,-5.2314,-5.2263,-5.2261,-5.2241,-5.2248,-5.2326,-5.2324,-5.2272,-5.2266,-5.2276,-5.2328,-5.2352,-5.2359,-5.2483,-5.2368,-5.2374,-5.2378,-5.2381,-5.2713,-5.2718,0,0,0,0,0,0,-5.2156,-5.2167,-5.2312,-5.2316,-5.2199,-5.2249,-5.2256,-5.2294,-5.2323,-5.2323,-5.2279,-5.2272,-5.2343,-5.2352,-5.2361,-5.2515,-5.2375,-5.2381,-5.2385,-5.2708,-5.2714,-5.2719,0,0,0,0,0,0,-5.2152,-5.217,-5.2309,-5.224,-5.2257,-5.2257,-5.23,-5.2298,-5.2322,-5.2329,-5.2327,-5.2305,-5.234,-5.2352,-5.2448,-5.2516,-5.2384,-5.239,-5.2703,-5.271,-5.2717,-5.2823,0,0,0,0,0,0,-5.2147,-5.2169,-5.2218,-5.2242,-5.2261,-5.2396,-5.2305,-5.2302,-5.2334,-5.2325,-5.2352,-5.2353,-5.2337,-5.2439,-5.2455,-5.2523,-5.2396,-5.2697,-5.2706,-5.2714,-5.2814,-5.2833,-5.285,0,0,0,0,0,-5.214,-5.2245,-5.2221,-5.2239,-5.2323,-5.24,-5.2411,-5.2392,-5.234,-5.239,-5.2394,-5.2352,-5.2506,-5.2449,-5.2467,-5.2538,-5.2692,-5.2703,-5.2714,-5.2806,-5.2829,-5.2849,0,0,0,0,0,0,-5.2228,-5.2247,-5.2221,-5.2338,-5.2368,-5.2387,-5.2449,-5.2418,-5.2463,-5.2452,-5.2425,-5.2432,-5.2535,-5.2546,-5.2482,-5.2665,-5.259,-5.2605,-5.2654,-5.2677,-5.2695,-5.269,-5.2401,0,0,0,0,0,-5.2261,-5.2323,-5.2336,-5.2438,-5.2454,-5.245,-5.2482,-5.2465,-5.2495,-5.2507,-5.2518,-5.2549,-5.2604,-5.2641,-5.2692,-5.2814,-5.2819,-5.2872,-5.289,-5.2905,-5.2918,-5.2985,-5.3008,-5.2755,-5.2755,-5.2754,0,0,-5.233,-5.2348,-5.2389,-5.2456,-5.2477,-5.2542,-5.2461,-5.2532,-5.2579,-5.2518,-5.261,-5.2619,-5.2651,-5.2762,-5.2811,-5.2774,-5.2989,-5.2919,-5.2931,-5.2936,-5.2998,-5.3022,-5.3044,-5.2762,-5.2761,-5.2759,0,0,-5.2488,-5.2508,-5.2595,-5.2619,-5.2653,-5.2649,-5.267,-5.2694,-5.2699,-5.2791,-5.2746,-5.2801,-5.2897,-5.2922,-5.2947,-5.3115,-5.3078,-5.3132,-5.3227,-5.3292,-5.3312,-5.3329,-5.339,-5.3412,-5.3145,-5.3145,-5.3146,0,-5.2569,-5.2666,-5.2644,-5.2719,-5.275,-5.2698,-5.2786,-5.2809,-5.2858,-5.288,-5.2838,-5.2957,-5.2975,-5.3091,-5.3132,-5.3153,-5.3176,-5.3129,-5.3311,-5.3328,-5.3344,-5.3402,-5.3425,-5.3152,-5.3151,-5.315,-5.315,0,-5.2764,-5.2831,-5.2897,-5.2947,-5.2985,-5.3066,-5.3056,-5.3097,-5.3076,-5.3077,-5.3171,-5.319,-5.3245,-5.3271,-5.3251,-5.3384,-5.336,-5.3315,-5.324,-5.3376,-5.3429,-5.3451,-5.3161,-5.3159,-5.3157,-5.3155,0,0,-5.298,-5.3018,-5.3042,-5.3065,-5.3099,-5.315,-5.3228,-5.3282,-5.3318,-5.3353,-5.3418,-5.3501,-5.3459,-5.3488,-5.347,-5.3527,-5.366,-5.3475,-5.3475,-5.3509,-5.3809,-5.3843,-5.3869,-5.3635,-5.3639,-5.3643,-5.3806,0,-5.314,-5.3278,-5.326,-5.3392,-5.3454,-5.3405,-5.3473,-5.3501,-5.3504,-5.3556,-5.3557,-5.3617,-5.3557,-5.3574,-5.3628,-5.3632,-5.372,-5.362,-5.3695,-5.3698,-5.369,-5.3897,-5.3934,-5.4087,-5.3827,-5.383,-5.3833,0,-5.3345,-5.339,-5.3528,-5.3553,-5.3578,-5.364,-5.3688,-5.3739,-5.3769,-5.3767,-5.3799,-5.3771,-5.3849,-5.3772,-5.3879,-5.3812,-5.3841,-5.3848,-5.3853,-5.386,-5.3775,-5.391,-5.4136,-5.4159,-5.3866,-5.3863,-5.3861,0,-5.3491,-5.3584,-5.3679,-5.37,-5.3731,-5.3775,-5.379,-5.3816,-5.385,-5.3892,-5.3914,-5.3964,-5.3992,-5.4031,-5.4017,-5.3962,-5.4127,-5.4048,-5.4127,-5.4128,-5.4165,-5.4163,-5.4399,-5.4182,-5.4182,-5.4181,-5.4181,0,-5.3672,-5.3758,-5.3745,-5.3804,-5.3899,-5.3878,-5.3972,-5.3981,-5.4004,-5.4063,-5.4023,-5.4079,-5.4057,-5.4111,-5.4101,-5.4191,-5.4203,-5.4203,-5.42,-5.4208,-5.4208,-5.4227,-5.4217,-5.4187,-5.4186,-5.4185,-5.4184,0,-5.3851,-5.3845,-5.3946,-5.3967,-5.3975,-5.4044,-5.4062,-5.4117,-5.4116,-5.4191,-5.4207,-5.4205,-5.4267,-5.4257,-5.4325,-5.4318,-5.4431,-5.4414,-5.4422,-5.4418,-5.4497,-5.449,-5.4755,-5.4789,-5.455,-5.4552,-5.4554,0,-5.3967,-5.4033,-5.4062,-5.4099,-5.4118,-5.4178,-5.4212,-5.4194,-5.4231,-5.4271,-5.4321,-5.4379,-5.4425,-5.4526,-5.453,-5.4582,-5.4566,-5.4655,-5.4574,-5.458,-5.4569,-5.4565,-5.4572,-5.4672,-5.4674,-5.4677,-5.4678,0,-5.4175,-5.4169,-5.4221,-5.4274,-5.4317,-5.4356,-5.4391,-5.4424,-5.4408,-5.4452,-5.4515,-5.4551,-5.4621,-5.468,-5.4728,-5.4742,-5.4708,-5.4704,-5.4725,-5.4734,-5.4737,-5.4738,-5.4467,-5.4698,-5.4696,-5.4695,-5.4694,-5.4693,-5.4327,-5.4383,-5.4413,-5.4473,-5.4498,-5.4532,-5.4584,-5.4591,-5.4643,-5.47,-5.4685,-5.4757,-5.4785,-5.4847,-5.4867,-5.4922,-5.4889,-5.4919,-5.4927,-5.4935,-5.4945,-5.4727,-5.493,-5.493,-5.4929,-5.4929,-5.4928,0,-5.4533,-5.455,-5.4605,-5.4657,-5.4704,-5.4668,-5.4706,-5.4747,-5.4811,-5.4841,-5.4887,-5.496,-5.5017,-5.5026,-5.5079,-5.5122,-5.5108,-5.5137,-5.5134,-5.5138,-5.4971,-5.4948,-5.5148,-5.5148,-5.5147,-5.5147,-5.5147,-5.5147,-5.4646,-5.474,-5.4738,-5.4844,-5.4859,-5.4931,-5.4955,-5.4986,-5.501,-5.5094,-5.5141,-5.5147,-5.5168,-5.5223,-5.5273,-5.5274,-5.5296,-5.5332,-5.5327,-5.5171,-5.515,-5.5129,-5.5107,-5.5337,-5.5337,-5.5489,-5.5491,-5.5492]}]]